Regional Weather Roundup
Issued by NWS

Home | Current Version | Previous Version | Text Only | Print | Product List | Glossary On
Versions: 1 2 3 4 5 6 7 8 9 10 11 12 13 14 15 16 17 18 19 20 21 22 23 24 25 26 27 28 29 30 31 32 33 34 35 36 37 38 39 40 41 42 43 44 45 46 47 48 49 50
000
ASUS43 KDMX 291707
RWRIA

WEATHER ROUNDUP FOR IOWA
NATIONAL WEATHER SERVICE DES MOINES IA
1200 PM CDT SUN MAR 29 2015

NOTE: "FAIR" INDICATES FEW OR NO CLOUDS BELOW 12,000 FEET WITH NO
SIGNIFICANT WEATHER AND/OR OBSTRUCTIONS TO VISIBILITY.

* - THESE STATIONS ARE NOT NWS STATIONS...THUS NOT UNDER NWS
QUALITY CONTROL.  THEY ALSO DO NOT REPORT WEATHER SUCH
AS PRECIPITATION OR FOG.

IAZ001>003-012>014-020>022-031>034-043>046-291800-
   NORTHWEST IOWA

CITY           SKY/WX    TMP DP  RH WIND       PRES   REMARKS
CARROLL *      CLOUDY    57  39  51 NW32G39   29.87R
CHEROKEE *     CLOUDY    48  41  76 NW22G33   29.90R
DENISON *      CLOUDY    52  41  66 NW25G36   29.91R
LE MARS *      CLOUDY    48  39  71 NW29G37   29.95R
ORANGE CITY *  CLOUDY    48  37  66 NW25G35   29.92R
SHELDON *      CLOUDY    48  39  71 NW32G41   29.87R
SIOUX CITY     CLOUDY    49  37  63 NW22G35   29.95R
SPENCER        CLOUDY    50  39  66 NW30G40   29.84R
STORM LAKE *   CLOUDY    48  41  76 NW33G41   29.88R
$$

IAZ055>058-069>071-079>083-090>094-291800-
   SOUTHWEST IOWA

CITY           SKY/WX    TMP DP  RH WIND       PRES   REMARKS
ATLANTIC *     CLOUDY    59  39  47 NW26G36   29.91R
AUDUBON *      SUNNY     55  39  54 NW23G32   29.90R
CLARINDA *     SUNNY     61  39  44 NW20G33   29.96S
COUNCIL BLFS * CLOUDY    57  41  54 NW28G37   29.95R
CRESTON *      SUNNY     55  43  62 W18G25    29.92S
HARLAN  *      PTSUNNY   57  39  51 NW32G41   29.95R
LAMONI         MOSUNNY   55  41  59 SW18      29.92S
RED OAK *      PTSUNNY   61  37  41 NW23G35   29.93S
SHENANDOAH *   MOSUNNY   63  37  39 MISG      29.96S
$$

IAZ047>049-059>061-072>074-084-291800-
   CENTRAL IOWA

CITY           SKY/WX    TMP DP  RH WIND       PRES   REMARKS
AMES           SUNNY     58  38  47 W30G41    29.82F
ANKENY *       SUNNY     59  41  51 W18G28    29.85F
CHARITON *     SUNNY     52  41  66 W18       29.89S
DES MOINES     MOSUNNY   57  40  52 W24G36    29.87S
GRINNELL*      MOSUNNY   52  41  66 SW20G26   29.84F
KNOXVILLE *    SUNNY     52  41  66 W20       29.86S
MARSHALLTOWN   SUNNY     55  42  61 W26G36    29.80F
PELLA *        MOSUNNY   54  46  76 W15       29.87S
PERRY *        CLOUDY    55  39  54 W24G32    29.86S
$$

IAZ004>006-015-016-023>025-035-036-291800-
   NORTH CENTRAL IOWA

CITY           SKY/WX    TMP DP  RH WIND       PRES   REMARKS
ALGONA *       CLOUDY    52  41  66 NW28G41   29.80R
CLARION *      CLOUDY    55  43  62 W33G40    29.78R
ESTHERVILLE    CLOUDY    49  39  68 NW32G41   29.80R
FORT DODGE *   CLOUDY    57  39  51 NW17G33   29.82R
MASON CITY     CLOUDY    54  40  59 W25G43    29.74R
FOREST CITY *  CLOUDY    52  39  62 W30G38    29.74R
IOWA FALLS *     N/A     57  41  54 W26G35    29.79S
$$

IAZ007>011-017>019-026>030-037>042-050>054-066-291800-
   NORTHEAST IOWA

CITY           SKY/WX    TMP DP  RH WIND       PRES   REMARKS
CEDAR RAPIDS   CLOUDY    44  40  85 SW21G29   29.82F
CHARLES CITY * SUNNY     55  46  71 W25G32    29.72F
CLINTON *      PTSUNNY   37  32  81 SW23G32   29.90F WCI  26
DECORAH *      PTSUNNY   43  39  87 SW14G24   29.70F
DUBUQUE        CLOUDY    34  31  88 SW25G33   29.80F WCI  21
MONTICELLO *   CLOUDY    39  39 100 S18G24    29.82F WCI  30
OELWEIN *      PTSUNNY   48  43  81 SW22G30   29.76F
WATERLOO       SUNNY     54  42  64 SW28G33   29.76F
$$

IAZ064-065-067-068-078-291800-
   EAST CENTRAL IOWA

CITY           SKY/WX    TMP DP  RH WIND       PRES   REMARKS
DAVENPORT      PTSUNNY   38  30  73 S24G33    29.89F WCI  27
IOWA CITY      CLOUDY    43  37  79 SW17G24   29.87F
MT. PLEASANT * PTSUNNY   43  36  75 SW23      29.91F
MUSCATINE *    PTSUNNY   43  36  75 SW21G28   29.90F
QUAD CITIES    PTSUNNY   38  31  76 SW18G32   29.89F WCI  28
$$

IAZ062-063-075>077-085>089-095>099-291800-
   SOUTHEAST IOWA

CITY           SKY/WX    TMP DP  RH WIND       PRES   REMARKS
BURLINGTON     CLOUDY    41  33  73 SW17G26   29.91F
FAIRFIELD *    MOSUNNY   48  39  71 SW23G30   29.89S
FORT MADISON * PTSUNNY   43  36  75 SW13G26   29.94F
KEOKUK *       MOSUNNY   46  36  66 SW18G25   29.94S
OSKALOOSA *    PTSUNNY   50  41  71 SW18      29.87F
CENTERVILLE *  SUNNY     48  41  76 SW21      29.92F
OTTUMWA        CLOUDY    51  40  65 SW20G25   29.87F
WASHINGTON *   PTSUNNY   46  43  87 SW24G31   29.88F
$$

ABBREVIATIONS USED IN REMARKS
   TC - TEMPERATURES IN CELSIUS
  WCI - WIND CHILL INDEX
   HX - HEAT INDEX
  VSB - VISIBILITY
$$



USA.gov is the U.S. government's official web portal to all federal, state and local government web resources and services.